{"data":{"norad_id":40013,"epoch":"2026-09-20T03:58:21.353088Z","epoch_age_seconds":43921,"freshness":"FRESH","line1":"1 40013U 14033D   26263.16552492  .00000149  00000+0  19059-4 0  9993","line2":"2 40013  97.5664 134.2545 0002039  53.6739 306.4669 14.93931211651907","mean_motion":14.93931211,"eccentricity":0.0002039,"inclination_deg":97.5664,"raan_deg":134.2545,"arg_perigee_deg":53.6739,"mean_anomaly_deg":306.4669,"bstar":1.9059e-5,"rev_number":65190,"period_min":96.389980301442,"perigee_km":584.27222479945,"apogee_km":587.11207432664,"semimajor_km":6963.829149563,"source":"CELESTRAK","updated_at":"2026-09-20T09:00:33.897282Z"}}